Glendive, MT

12:50 AM MST on January 16, 2018 (GMT -0700)
Dawson Community

Weather History for KGDV - January, 2015

Change the Weather History Date:

Sunday, January 4, 2015

  Actual Average Record
Temperature  
Mean Temperature -8 °F 18 °F  
Max Temperature 1 °F 28 °F 55 °F (2012)
Min Temperature -18 °F 8 °F -22 °F (1993)
Degree Days  
Heating Degree Days 74 47  
Month to date heating degree days 188  
Year to date heating degree days 188  
Since 1 July heating degree days 3176  
Cooling Degree Days 0 0  
Month to date cooling degree days 0  
Year to date cooling degree days 0  
Since 1 July cooling degree days 0  
Moisture  
Dew Point -15 °F    
Average Humidity 77    
Maximum Humidity 100    
Minimum Humidity 63    
Precipitation  
Precipitation 0.00 in 0.01 in 0.07 in (2007)
Month to date precipitation 0.05  
Year to date precipitation 0.05  
Sea Level Pressure  
Sea Level Pressure 30.49 in    
Wind  
Wind Speed 8 mph (WNW)    
Max Wind Speed 15 mph    
Max Gust Speed 17 mph    
Visibility 10 miles    
Events      
T = Trace of Precipitation, MM = Missing Value Source: NWS Daily Summary

Daily Weather History Graph

Daily Weather History Graph

Search for Another Location

Airport or City:

Trip Planner

Search our weather history database for the weather conditions in past years. The results will help you decide how hot, cold, wet, or windy it might be!

Date:

Astronomy

Jan. 04, 2015 Rise Set
Actual Time 7:45 AM MST 4:23 PM MST
Civil Twilight 7:10 AM MST 4:58 PM MST
Nautical Twilight 6:31 AM MST 5:37 PM MST
Astronomical Twilight 5:54 AM MST 6:14 PM MST
Moon 4:30 PM MST (1/4) 6:55 AM MST (1/4)
Length of Visible Light 9h 48m
Length of Day
8h 37m
Full, 100% of the Moon is Illuminated
Jan 4
Full
Jan 4
Full
Jan 13
Last Quarter
Jan 20
New
Jan 26
First Quarter

Hourly Weather History & Observations

Time (MST) Temp. Windchill Dew Point Humidity Pressure Visibility Wind Dir Wind Speed Gust Speed Precip Events Conditions
12:15 AM -0.4 °F -12.0 °F -4.0 °F 85% 30.43 in 7.0 mi NNW 5.8 mph - N/A   Clear
12:35 AM -0.4 °F -13.4 °F -4.0 °F 85% 30.43 in 7.0 mi NW 6.9 mph - N/A   Clear
12:55 AM -0.4 °F -10.4 °F -5.8 °F 78% 30.43 in 6.0 mi NW 4.6 mph - N/A   Clear
1:15 AM -0.4 °F -13.4 °F -4.0 °F 85% 30.43 in 9.0 mi NW 6.9 mph - N/A   Clear
1:35 AM -0.4 °F -12.0 °F -5.8 °F 78% 30.43 in 8.0 mi NW 5.8 mph - N/A   Clear
1:55 AM -0.4 °F -13.4 °F -4.0 °F 85% 30.44 in 4.0 mi NW 6.9 mph - N/A   Clear
2:15 AM 1.4 °F -12.5 °F -4.0 °F 78% 30.44 in 7.0 mi NW 8.1 mph - N/A   Clear
2:35 AM -0.4 °F -13.4 °F -5.8 °F 78% 30.44 in 6.0 mi NW 6.9 mph - N/A   Clear
2:55 AM -0.4 °F -8.3 °F -7.6 °F 72% 30.44 in 10.0 mi NW 3.5 mph - N/A   Clear
3:15 AM -2.2 °F - -5.8 °F 85% 30.44 in 10.0 mi Calm Calm - N/A   Clear
3:35 AM -2.2 °F -15.6 °F -5.8 °F 85% 30.44 in 10.0 mi NW 6.9 mph - N/A   Clear
3:55 AM -2.2 °F -16.8 °F -7.6 °F 78% 30.44 in 10.0 mi NW 8.1 mph - N/A   Clear
4:15 AM -2.2 °F -18.0 °F -7.6 °F 78% 30.44 in 10.0 mi NNW 9.2 mph - N/A   Mostly Cloudy
4:35 AM -2.2 °F -18.9 °F -9.4 °F 71% 30.45 in 10.0 mi NNW 10.4 mph - N/A   Partly Cloudy
4:55 AM -4.0 °F -22.1 °F -9.4 °F 78% 30.45 in 10.0 mi NNW 11.5 mph - N/A   Mostly Cloudy
5:15 AM -5.8 °F -24.4 °F -9.4 °F 84% 30.46 in 10.0 mi NW 11.5 mph - N/A   Mostly Cloudy
5:35 AM -5.8 °F -19.9 °F -11.2 °F 77% 30.47 in 10.0 mi NW 6.9 mph - N/A   Mostly Cloudy
5:55 AM -5.8 °F -21.2 °F -11.2 °F 77% 30.47 in 10.0 mi NW 8.1 mph - N/A   Mostly Cloudy
6:15 AM -7.6 °F -27.5 °F -13.0 °F 77% 30.46 in 10.0 mi NNW 12.7 mph 17.3 mph N/A   Partly Cloudy
6:35 AM -7.6 °F -27.5 °F -14.8 °F 71% 30.47 in 10.0 mi NW 12.7 mph - N/A   Clear
6:55 AM -9.4 °F -26.8 °F -14.8 °F 77% 30.47 in 10.0 mi NW 9.2 mph - N/A   Clear
7:15 AM -9.4 °F -27.9 °F -16.6 °F 71% 30.48 in 10.0 mi NW 10.4 mph - N/A   Clear
7:35 AM -9.4 °F -25.6 °F -16.6 °F 71% 30.49 in 10.0 mi NW 8.1 mph - N/A   Partly Cloudy
7:55 AM -9.4 °F -26.8 °F -14.8 °F 77% 30.50 in 10.0 mi WNW 9.2 mph - N/A   Mostly Cloudy
8:15 AM -9.4 °F -26.8 °F -14.8 °F 77% 30.51 in 10.0 mi West 9.2 mph - N/A   Scattered Clouds
8:35 AM -9.4 °F -28.9 °F -13.0 °F 84% 30.51 in 10.0 mi WNW 11.5 mph - N/A   Clear
8:55 AM -9.4 °F -28.9 °F -16.6 °F 71% 30.51 in 10.0 mi WNW 11.5 mph 17.3 mph N/A   Clear
9:15 AM -9.4 °F -29.8 °F -13.0 °F 84% 30.52 in 10.0 mi West 12.7 mph - N/A   Clear
9:35 AM -7.6 °F -25.7 °F -14.8 °F 71% 30.52 in 10.0 mi WNW 10.4 mph - N/A   Clear
9:55 AM -7.6 °F -26.6 °F -14.8 °F 71% 30.52 in 10.0 mi West 11.5 mph - N/A   Clear
10:15 AM -7.6 °F -26.6 °F -14.8 °F 71% 30.53 in 10.0 mi WNW 11.5 mph 16.1 mph N/A   Clear
10:35 AM -7.6 °F -29.1 °F -14.8 °F 71% 30.53 in 10.0 mi WNW 15.0 mph - N/A   Clear
10:55 AM -9.4 °F -30.6 °F -18.4 °F 65% 30.53 in 10.0 mi NNW 13.8 mph - N/A   Clear
11:15 AM -7.6 °F -26.6 °F -14.8 °F 71% 30.53 in 10.0 mi NW 11.5 mph - N/A   Clear
11:35 AM -7.6 °F -27.5 °F -14.8 °F 71% 30.53 in 10.0 mi WNW 12.7 mph - N/A   Clear
11:55 AM -7.6 °F -26.6 °F -16.6 °F 65% 30.53 in 10.0 mi WNW 11.5 mph - N/A   Clear
12:15 PM -7.6 °F -28.3 °F -16.6 °F 65% 30.53 in 10.0 mi WNW 13.8 mph - N/A   Clear
12:35 PM -9.4 °F -31.4 °F -18.4 °F 65% 30.51 in 10.0 mi NW 15.0 mph - N/A   Clear
12:55 PM -9.4 °F -25.6 °F -16.6 °F 71% 30.53 in 10.0 mi NW 8.1 mph - N/A   Clear
1:15 PM -9.4 °F -29.8 °F -16.6 °F 71% 30.52 in 10.0 mi WNW 12.7 mph - N/A   Clear
1:35 PM -9.4 °F -26.8 °F -16.6 °F 71% 30.53 in 10.0 mi WNW 9.2 mph - N/A   Clear
1:55 PM -7.6 °F -28.3 °F -14.8 °F 71% 30.54 in 10.0 mi WNW 13.8 mph - N/A   Clear
2:15 PM -7.6 °F -25.7 °F -16.6 °F 65% 30.54 in 10.0 mi WNW 10.4 mph - N/A   Clear
2:35 PM -7.6 °F -23.4 °F -14.8 °F 71% 30.55 in 10.0 mi WNW 8.1 mph - N/A   Clear
2:55 PM -9.4 °F -22.7 °F -16.6 °F 71% 30.56 in 10.0 mi WNW 5.8 mph - N/A   Clear
3:15 PM -9.4 °F -24.3 °F -18.4 °F 65% 30.55 in 10.0 mi West 6.9 mph - N/A   Clear
3:35 PM -11.2 °F -23.0 °F -16.6 °F 77% 30.55 in 10.0 mi NW 4.6 mph - N/A   Clear
3:55 PM -11.2 °F -23.0 °F -18.4 °F 70% 30.55 in 10.0 mi WNW 4.6 mph - N/A   Clear
4:15 PM -13.0 °F -31.3 °F -18.4 °F 77% 30.55 in 10.0 mi WNW 9.2 mph - N/A   Clear
4:35 PM -13.0 °F -32.4 °F -18.4 °F 77% 30.54 in 10.0 mi West 10.4 mph - N/A   Clear
4:55 PM -13.0 °F -30.0 °F -20.2 °F 70% 30.55 in 10.0 mi West 8.1 mph - N/A   Clear
5:15 PM -14.8 °F -30.8 °F -14.8 °F 100% 30.54 in 10.0 mi West 6.9 mph - N/A   Clear
5:35 PM -14.8 °F -27.2 °F -23.8 °F 64% 30.55 in 10.0 mi West 4.6 mph - N/A   Clear
5:55 PM -14.8 °F -29.1 °F -16.6 °F 92% 30.55 in 10.0 mi WSW 5.8 mph - N/A   Clear
6:15 PM -14.8 °F -32.2 °F -20.2 °F 77% 30.54 in 10.0 mi WSW 8.1 mph - N/A   Clear
6:35 PM -14.8 °F -29.1 °F -18.4 °F 84% 30.55 in 10.0 mi WSW 5.8 mph - N/A   Clear
6:55 PM -16.6 °F - -23.8 °F 70% 30.55 in 10.0 mi Calm Calm - N/A   Clear
7:15 PM -16.6 °F -26.8 °F -20.2 °F 84% 30.54 in 10.0 mi SW 3.5 mph - N/A   Clear
7:35 PM -18.4 °F -28.9 °F -20.2 °F 91% 30.53 in 10.0 mi West 3.5 mph - N/A   Clear
7:55 PM -16.6 °F - -22.0 °F 76% 30.52 in 10.0 mi Calm Calm - N/A   Clear
8:15 PM -18.4 °F -31.4 °F -23.8 °F 76% 30.51 in 10.0 mi WNW 4.6 mph - N/A   Clear
8:35 PM -16.6 °F -31.3 °F -20.2 °F 84% 30.49 in 10.0 mi West 5.8 mph - N/A   Clear
8:55 PM -18.4 °F - -23.8 °F 76% 30.48 in 10.0 mi Calm Calm - N/A   Clear
9:15 PM -18.4 °F -31.4 °F -27.4 °F 63% 30.47 in 10.0 mi SSE 4.6 mph - N/A   Clear
9:35 PM -18.4 °F -36.6 °F -20.2 °F 91% 30.46 in 10.0 mi South 8.1 mph - N/A   Clear
9:55 PM -18.4 °F -33.4 °F -18.4 °F 100% 30.45 in 10.0 mi South 5.8 mph - N/A   Clear
10:15 PM -16.6 °F -26.8 °F -20.2 °F 84% 30.44 in 10.0 mi South 3.5 mph - N/A   Clear
10:35 PM -16.6 °F -31.3 °F -20.2 °F 84% 30.42 in 10.0 mi SW 5.8 mph - N/A   Clear
10:55 PM -14.8 °F -30.8 °F -18.4 °F 84% 30.42 in 10.0 mi South 6.9 mph - N/A   Clear
11:15 PM -14.8 °F -30.8 °F -14.8 °F 100% 30.41 in 10.0 mi SSE 6.9 mph - N/A   Clear
11:35 PM -14.8 °F -29.1 °F -23.8 °F 64% 30.39 in 10.0 mi SSE 5.8 mph - N/A   Clear
11:55 PM -14.8 °F -29.1 °F -16.6 °F 92% 30.37 in 10.0 mi South 5.8 mph - N/A   Clear